Rochester, NH

4:59 AM EDT on August 21, 2017 (GMT -0400)
Skyhaven

Weather History for KDAW - July, 2014

Change the Weather History Date:

Wednesday, July 23, 2014

  Actual Average (KPSM) Record (KPSM)
Temperature  
Mean Temperature 80 °F -  
Max Temperature 91 °F 77 °F 95 °F (1978)
Min Temperature 70 °F 59 °F 47 °F (1977)
Cooling Degree Days 14    
Growing Degree Days 30 (Base 50)    
Moisture  
Dew Point 68 °F    
Average Humidity 79    
Maximum Humidity 93    
Minimum Humidity 52    
Precipitation  
Precipitation 0.15 in - - ()
Sea Level Pressure  
Sea Level Pressure 29.81 in    
Wind  
Wind Speed 3 mph (NW)    
Max Wind Speed 24 mph    
Max Gust Speed 32 mph    
Visibility 9 miles    
Events Rain , Thunderstorm    
Averages and records for this station are not official NWS values.
T = Trace of Precipitation, MM = Missing Value Source: NWS Daily Summary

Daily Weather History Graph

Daily Weather History Graph

Search for Another Location

Airport or City:

Trip Planner

Search our weather history database for the weather conditions in past years. The results will help you decide how hot, cold, wet, or windy it might be!

Date:

Astronomy

Jul. 23, 2014 Rise Set
Actual Time 5:24 AM EDT 8:15 PM EDT
Civil Twilight 4:51 AM EDT 8:48 PM EDT
Nautical Twilight 4:08 AM EDT 9:30 PM EDT
Astronomical Twilight 3:19 AM EDT 10:19 PM EDT
Moon 2:41 AM EDT (7/23) 5:40 PM EDT (7/23)
Length of Visible Light 15h 57m
Length of Day
14h 50m
Waning Crescent, 10% of the Moon is Illuminated
Jul 23
Waning Crescent
Jul 26
New
Aug 3
First Quarter
Aug 10
Full
Aug 17
Last Quarter

Hourly Weather History & Observations

Time (EDT) Temp. Heat Index Dew Point Humidity Pressure Visibility Wind Dir Wind Speed Gust Speed Precip Events Conditions
12:51 AM 71.1 °F - 66.9 °F 87% 29.94 in 10.0 mi Calm Calm - N/A   Clear
1:51 AM 73.0 °F - 66.9 °F 81% 29.92 in 10.0 mi Variable 3.5 mph - N/A   Clear
3:51 AM 71.1 °F - 66.9 °F 87% 29.90 in 10.0 mi Calm Calm - N/A   Clear
4:51 AM 70.0 °F - 66.9 °F 90% 29.89 in 9.0 mi Calm Calm - N/A   Clear
5:51 AM 71.1 °F - 66.9 °F 87% 29.88 in 8.0 mi Calm Calm - N/A   Clear
6:51 AM 72.0 °F - 68.0 °F 87% 29.88 in 9.0 mi Calm Calm - N/A   Clear
7:51 AM 75.9 °F - 69.1 °F 79% 29.88 in 10.0 mi Calm Calm - N/A   Clear
8:51 AM 79.0 °F - 69.1 °F 72% 29.87 in 10.0 mi Variable 3.5 mph - N/A   Clear
9:51 AM 82.9 °F 87.5 °F 71.1 °F 67% 29.85 in 10.0 mi Variable 3.5 mph - N/A   Clear
10:51 AM 86.0 °F 91.5 °F 71.1 °F 61% 29.83 in 10.0 mi Variable 6.9 mph - N/A   Clear
11:51 AM 87.1 °F 92.8 °F 71.1 °F 59% 29.81 in 10.0 mi Variable 4.6 mph - N/A   Clear
3:51 PM 89.1 °F 93.7 °F 69.1 °F 52% 29.72 in 10.0 mi Variable 3.5 mph - N/A   Scattered Clouds
5:51 PM 88.0 °F 92.1 °F 69.1 °F 53% 29.70 in 10.0 mi Calm Calm - N/A   Scattered Clouds
6:51 PM 84.9 °F 90.1 °F 71.1 °F 63% 29.70 in 10.0 mi Calm Calm - N/A   Clear
7:51 PM 80.1 °F 81.9 °F 64.9 °F 60% 29.75 in 10.0 mi NW 24.2 mph 32.2 mph N/A   Mostly Cloudy
8:01 PM 79.0 °F - 63.0 °F 58% 29.77 in 10.0 mi NW 15.0 mph 26.5 mph N/A   Overcast
8:42 PM 72.0 °F - 66.9 °F 84% 29.79 in 8.0 mi WNW 10.4 mph - 0.04 in Rain , Thunderstorm Light Rain
8:51 PM 72.0 °F - 66.9 °F 84% 29.78 in 10.0 mi WNW 6.9 mph - 0.04 in Rain Light Rain
9:00 PM 72.0 °F - 66.9 °F 84% 29.78 in 10.0 mi NW 6.9 mph - 0.01 in Rain , Thunderstorm Light Thunderstorms and Rain
9:51 PM 71.1 °F - 68.0 °F 90% 29.77 in 7.0 mi NNE 5.8 mph - 0.08 in Rain , Thunderstorm Light Rain
10:13 PM 70.0 °F - 68.0 °F 93% 29.79 in 5.0 mi Calm Calm - 0.05 in Rain , Thunderstorm Thunderstorms and Rain
10:28 PM 71.1 °F - 69.1 °F 93% 29.78 in 4.0 mi SE 3.5 mph - 0.08 in Rain Rain
11:07 PM 70.0 °F - 68.0 °F 93% 29.79 in 7.0 mi Calm Calm - 0.01 in Rain Light Rain
11:32 PM 70.0 °F - 68.0 °F 93% 29.78 in 7.0 mi Variable 3.5 mph - 0.02 in Rain Light Rain
11:41 PM 70.0 °F - 68.0 °F 93% 29.79 in 7.0 mi Calm Calm - 0.02 in Rain Light Rain
11:51 PM 70.0 °F - 68.0 °F 93% 29.77 in 7.0 mi Calm Calm - 0.03 in Rain Light Rain